TimeCST,TemperatureF,Dew PointF,Humidity,Sea Level PressureIn,VisibilityMPH,Wind Direction,Wind SpeedMPH,Gust SpeedMPH,PrecipitationIn,Events,Conditions,WindDirDegrees,DateUTC
12:53 AM,34.0,27.0,75,30.17,10.0,NNW,5.8,-,N/A,,Clear,340,2013-03-01 06:53:00
1:53 AM,35.6,28.4,75,30.17,10.0,NNW,5.8,-,N/A,,Overcast,330,2013-03-01 07:53:00
2:53 AM,35.1,28.0,76,30.16,10.0,North,5.8,-,N/A,,Overcast,360,2013-03-01 08:53:00
3:53 AM,35.6,26.6,70,30.15,10.0,North,6.9,-,N/A,,Overcast,360,2013-03-01 09:53:00
4:53 AM,34.0,27.0,75,30.17,10.0,NNE,4.6,-,N/A,,Overcast,20,2013-03-01 10:53:00
5:53 AM,33.8,26.6,75,30.17,10.0,North,5.8,-,N/A,,Overcast,360,2013-03-01 11:53:00
6:53 AM,35.1,27.0,72,30.18,10.0,NW,3.5,-,N/A,,Overcast,320,2013-03-01 12:53:00
7:53 AM,35.1,25.0,67,30.20,10.0,NNW,6.9,-,N/A,,Overcast,340,2013-03-01 13:53:00
8:53 AM,36.0,24.1,62,30.22,10.0,North,5.8,-,N/A,,Overcast,350,2013-03-01 14:53:00
9:53 AM,37.0,25.0,62,30.23,10.0,NNW,6.9,-,N/A,,Overcast,340,2013-03-01 15:53:00
10:53 AM,37.0,25.0,62,30.22,10.0,WNW,6.9,-,N/A,,Overcast,300,2013-03-01 16:53:00
11:53 AM,39.0,26.1,60,30.22,10.0,NW,8.1,-,N/A,,Overcast,310,2013-03-01 17:53:00
12:53 PM,39.0,26.1,60,30.20,10.0,West,10.4,-,N/A,,Overcast,280,2013-03-01 18:53:00
1:53 PM,39.0,25.0,57,30.18,10.0,NW,9.2,-,N/A,,Overcast,320,2013-03-01 19:53:00
2:53 PM,39.9,24.1,53,30.17,10.0,NW,11.5,-,N/A,,Overcast,310,2013-03-01 20:53:00
3:53 PM,39.9,24.1,53,30.17,10.0,NW,12.7,18.4,N/A,,Overcast,320,2013-03-01 21:53:00
4:53 PM,39.9,23.0,51,30.18,10.0,NW,11.5,-,N/A,,Overcast,320,2013-03-01 22:53:00
5:53 PM,39.9,23.0,51,30.18,10.0,NW,8.1,-,N/A,,Overcast,320,2013-03-01 23:53:00
6:53 PM,39.0,24.1,55,30.19,10.0,NW,3.5,-,N/A,,Overcast,310,2013-03-02 00:53:00
7:53 PM,37.9,26.1,62,30.20,10.0,NW,3.5,-,N/A,,Overcast,320,2013-03-02 01:53:00
8:53 PM,37.0,27.0,67,30.21,10.0,North,9.2,-,N/A,,Overcast,10,2013-03-02 02:53:00
9:53 PM,36.0,25.0,64,30.22,10.0,North,8.1,17.3,N/A,,Overcast,360,2013-03-02 03:53:00
10:53 PM,34.0,23.0,64,30.22,10.0,North,10.4,-,N/A,,Mostly Cloudy,360,2013-03-02 04:53:00
11:53 PM,34.0,23.0,64,30.22,10.0,North,10.4,-,N/A,,Overcast,350,2013-03-02 05:53:00